(505129) = 2012 HB16 = 2014 WJ393

Discovered at Mount Lemmon on 2007-12-19 by Mt. Lemmon Survey.

Orbit

Orbit type: Main Belt

Note: WebGL enabled browser required.

epoch2023-09-13.0
epoch JD2460200.5
perihelion date2021-12-19.55142
perihelion JD2459568.05142
argument of perihelion (°)3.62343
ascending node (°)128.33414
inclination (°)7.38512
eccentricity0.1898288
perihelion distance (AU)1.8366473
Tisserand w.r.t. Jupiter3.6
ΔV w.r.t. Earth (km/sec)8.7
semimajor axis (AU)2.2669866
mean anomaly (°)182.62307
mean daily motion (°/day)0.28875560
aphelion distance (AU)2.697
period (years)3.41
P-vector [x]-0.66816886
P-vector [y]0.67934351
P-vector [z]0.30338551
Q-vector [x]-0.73714616
Q-vector [y]-0.65972634
Q-vector [z]-0.14620772
absolute magnitude18.17
phase slope0.15
uncertainty0
referenceMPEC 2023-X152
observations used229
oppositions7
arc length (days)5244
first opposition used2007
last opposition used2022
residual rms (arc-secs)0.74
perturbers coarse indicatorM-v
perturbers precise indicator003Ek
first observation date used2007-12-19.0
last observation date used2022-04-28.0
computer nameMPCLINUX
JD of orbit computation2458051.161735
perihelion JD uncertainty (days)4.8855E-05
argument of perihelion uncertainty (°)3.3553E-05
ascending node uncertainty (°)2.9908E-05
inclination uncertainty (°)3.4428E-06
eccentricity uncertainty 4.0733E-08
perihelion distance uncertainty (AU)1.0428E-07
Minimum Orbit Intersection Distances (in AU)
for orbit epoch: 2460200.5, reference: E2023-XF2
Mercury1.49749
Venus1.11913
Earth0.8499
Mars0.18044
Jupiter2.34829
Saturn6.98821
Uranus16.5232
Neptune27.3472

Observations

232 total observations over interval: 2007 12 19.27910 – 2022 04 28.241747
These data are available for download (format description).

Date (UT) J2000 RA J2000 Dec Magn Location Ref
2007 12 19.27910 05 04 16.46 +11 59 50.2 19.6 V G96 – Mt. Lemmon Survey MPS 551651
2007 12 19.28768 05 04 15.88 +11 59 51.8 19.8 V G96 – Mt. Lemmon Survey MPS 551651
2007 12 19.29625 05 04 15.31 +11 59 53.8 19.4 V G96 – Mt. Lemmon Survey MPS 551651
2007 12 19.30493 05 04 14.70 +11 59 55.3 19.6 V G96 – Mt. Lemmon Survey MPS 551651
2008 02 11.14004 04 52 06.88 +17 46 20.7 20.7 V G96 – Mt. Lemmon Survey MPS 551651
2008 02 11.14443 04 52 07.10 +17 46 22.5 20.4 V G96 – Mt. Lemmon Survey MPS 551651
2008 02 11.14888 04 52 07.32 +17 46 24.9 21.2 V G96 – Mt. Lemmon Survey MPS 551651
2008 02 11.15334 04 52 07.50 +17 46 26.7 20.7 V G96 – Mt. Lemmon Survey MPS 551651
2012 04 19.22143 14 40 11.92 -01 09 08.9   691 – Steward Observatory, Kitt Peak-Spacewatch MPS 421966
2012 04 19.23916 14 40 10.86 -01 09 02.9   691 – Steward Observatory, Kitt Peak-Spacewatch MPS 421966
2012 04 19.25689 14 40 09.84 -01 08 56.8   691 – Steward Observatory, Kitt Peak-Spacewatch MPS 421966
2012 04 25.21460 14 34 20.80 -00 37 03.1 20.7 V 691 – Steward Observatory, Kitt Peak-Spacewatch MPS 421966
2012 04 25.23394 14 34 19.59 -00 36 57.4 20.4 V 691 – Steward Observatory, Kitt Peak-Spacewatch MPS 421966
2012 04 25.25327 14 34 18.42 -00 36 51.7 20.6 V 691 – Steward Observatory, Kitt Peak-Spacewatch MPS 421966
2012 05 09.293183 14 20 51.61 +00 10 24.4 21.1 i 309 – Cerro Paranal MPS 803533
2012 05 09.296447 14 20 51.43 +00 10 24.8 21.2 i 309 – Cerro Paranal MPS 803533
2012 05 09.299734 14 20 51.23 +00 10 25.1 21.9 i 309 – Cerro Paranal MPS 803533
2012 05 09.302975 14 20 51.05 +00 10 25.4 21.9 i 309 – Cerro Paranal MPS 803533
2012 05 09.306262 14 20 50.89 +00 10 25.8 21.3 i 309 – Cerro Paranal MPS 803533
2012 05 11.14364 14 19 16.23 +00 13 09.0 20.5 V 691 – Steward Observatory, Kitt Peak-Spacewatch MPS 424025
2012 05 11.15961 14 19 15.38 +00 13 10.1 20.8 V 691 – Steward Observatory, Kitt Peak-Spacewatch MPS 424025
2012 05 11.17559 14 19 14.53 +00 13 11.5 20.9 V 691 – Steward Observatory, Kitt Peak-Spacewatch MPS 424025
2012 05 13.14406 14 17 36.66 +00 15 17.5 20.8 V 691 – Steward Observatory, Kitt Peak-Spacewatch MPS 424025
2012 05 13.16002 14 17 35.86 +00 15 18.6 20.9 V 691 – Steward Observatory, Kitt Peak-Spacewatch MPS 424025
2012 05 13.17597 14 17 35.03 +00 15 19.3 20.7 V 691 – Steward Observatory, Kitt Peak-Spacewatch MPS 424025
2012 05 18.35759 14 13 40.738 +00 16 22.44 21.0 w F51 – Pan-STARRS 1, Haleakala MPS 425050
2012 05 18.37115 14 13 40.133 +00 16 22.18 20.9 w F51 – Pan-STARRS 1, Haleakala MPS 425050
2012 05 18.38474 14 13 39.522 +00 16 21.56 21.0 w F51 – Pan-STARRS 1, Haleakala MPS 425050
2012 05 18.39837 14 13 38.920 +00 16 21.42 20.8 w F51 – Pan-STARRS 1, Haleakala MPS 425050
2014 11 24.47201 08 14 56.53 +13 25 17.0 20.4 V G96 – Mt. Lemmon Survey MPS 551904
2014 11 24.47813 08 14 56.76 +13 25 16.4 21.3 V G96 – Mt. Lemmon Survey MPS 551904
2014 11 24.48426 08 14 57.05 +13 25 16.2 20.1 V G96 – Mt. Lemmon Survey MPS 551904
2014 11 24.49039 08 14 57.31 +13 25 15.9 20.4 V G96 – Mt. Lemmon Survey MPS 551904
2014 11 29.50250 08 18 15.071 +13 21 14.78 20.8 w F51 – Pan-STARRS 1, Haleakala MPS 551904
2014 11 29.51510 08 18 15.469 +13 21 14.63 20.6 w F51 – Pan-STARRS 1, Haleakala MPS 551904
2014 11 29.52769 08 18 15.873 +13 21 14.54 20.9 w F51 – Pan-STARRS 1, Haleakala MPS 551904
2014 11 29.54030 08 18 16.278 +13 21 14.20 20.8 w F51 – Pan-STARRS 1, Haleakala MPS 551904
2014 12 29.36027 08 19 33.78 +14 47 40.0 20.0 r G45 – Space Surveillance Telescope, Atom Site MPS 569613
2014 12 29.36636 08 19 33.57 +14 47 42.7 20.2 r G45 – Space Surveillance Telescope, Atom Site MPS 569613
2014 12 29.36641 08 19 33.56 +14 47 42.6 19.8 r G45 – Space Surveillance Telescope, Atom Site MPS 569613
2014 12 29.36965 08 19 33.49 +14 47 43.6 19.4 r G45 – Space Surveillance Telescope, Atom Site MPS 569613
2014 12 29.37270 08 19 33.35 +14 47 45.1 19.7 r G45 – Space Surveillance Telescope, Atom Site MPS 569613
2014 12 29.37275 08 19 33.34 +14 47 44.6 20.5 r G45 – Space Surveillance Telescope, Atom Site MPS 569613
2014 12 29.37575 08 19 33.23 +14 47 46.0 20.1 r G45 – Space Surveillance Telescope, Atom Site MPS 569613
2014 12 29.37580 08 19 33.22 +14 47 46.6 19.9 r G45 – Space Surveillance Telescope, Atom Site MPS 569613
2014 12 29.37751 08 19 33.23 +14 47 47.3 20.1 r G45 – Space Surveillance Telescope, Atom Site MPS 569613
2014 12 29.38056 08 19 33.10 +14 47 47.7 20.0 r G45 – Space Surveillance Telescope, Atom Site MPS 569613
2014 12 29.38360 08 19 33.00 +14 47 49.6 20.2 r G45 – Space Surveillance Telescope, Atom Site MPS 569613
2014 12 30.35803 08 19 02.66 +14 54 16.7 19.7 r G45 – Space Surveillance Telescope, Atom Site MPS 562761
2014 12 30.36224 08 19 02.51 +14 54 18.6 19.5 r G45 – Space Surveillance Telescope, Atom Site MPS 562761
2014 12 30.36666 08 19 02.37 +14 54 20.6 20.2 r G45 – Space Surveillance Telescope, Atom Site MPS 562761
2014 12 30.37094 08 19 02.23 +14 54 22.6 19.7 r G45 – Space Surveillance Telescope, Atom Site MPS 562761
2014 12 30.37343 08 19 02.15 +14 54 22.9 19.7 r G45 – Space Surveillance Telescope, Atom Site MPS 562761
2014 12 30.37750 08 19 01.95 +14 54 24.6 19.6 r G45 – Space Surveillance Telescope, Atom Site MPS 562761
2015 01 16.20528 08 06 12.60 +17 15 28.0 19.6 V 703 – Catalina Sky Survey MPS 561239
2015 01 16.21736 08 06 11.85 +17 15 35.5 19.3 V 703 – Catalina Sky Survey MPS 561239
2015 01 21.31089 08 01 24.06 +18 05 24.4 19.0 V 703 – Catalina Sky Survey MPS 562761
2015 01 21.31489 08 01 23.82 +18 05 27.2 19.1 V 703 – Catalina Sky Survey MPS 562761
2015 01 21.32289 08 01 23.26 +18 05 29.9 19.0 V 703 – Catalina Sky Survey MPS 562761
2015 01 22.33769 08 00 25.56 +18 15 35.0 19.0 V 703 – Catalina Sky Survey MPS 562761
2015 01 22.34269 08 00 25.24 +18 15 37.3 19.1 V 703 – Catalina Sky Survey MPS 562761
2015 01 22.35270 08 00 24.64 +18 15 42.9 19.0 V 703 – Catalina Sky Survey MPS 562761
2015 01 25.24887 07 57 42.14 +18 44 23.2 19.3 r I41 – Palomar Mountain--ZTF MPS 567631
2015 01 25.37920 07 57 34.41 +18 45 40.2 19.4 r I41 – Palomar Mountain--ZTF MPS 567631
2015 01 25.44519 07 57 30.56 +18 46 18.8 19.2 r I41 – Palomar Mountain--ZTF MPS 567631
2015 02 06.57459 07 47 33.57 +20 40 57.8 19.3 R D29 – Purple Mountain Observatory, XuYi Station MPS 571038
2015 02 06.59311 07 47 32.72 +20 41 07.7 20.4 R D29 – Purple Mountain Observatory, XuYi Station MPS 571038
2015 02 06.61163 07 47 31.93 +20 41 17.2 19.8 R D29 – Purple Mountain Observatory, XuYi Station MPS 571038
2015 02 09.58146 07 45 40.17 +21 06 47.6 20.0 R D29 – Purple Mountain Observatory, XuYi Station MPS 571038
2015 02 09.59909 07 45 39.45 +21 06 56.6 19.8 R D29 – Purple Mountain Observatory, XuYi Station MPS 571038
2015 02 09.61673 07 45 38.76 +21 07 05.6 20.1 R D29 – Purple Mountain Observatory, XuYi Station MPS 571038
2015 02 12.58335 07 44 05.15 +21 31 10.9 19.4 R D29 – Purple Mountain Observatory, XuYi Station MPS 571038
2015 02 12.59922 07 44 04.64 +21 31 18.3 19.8 R D29 – Purple Mountain Observatory, XuYi Station MPS 571038
2015 02 14.29177 07 43 19.67 +21 44 20.8 19.1 r G45 – Space Surveillance Telescope, Atom Site MPS 587208
2015 02 14.29584 07 43 19.49 +21 44 24.0 20.0 r G45 – Space Surveillance Telescope, Atom Site MPS 587208
2015 02 14.29999 07 43 19.40 +21 44 25.8 20.1 r G45 – Space Surveillance Telescope, Atom Site MPS 587208
2015 02 14.30406 07 43 19.24 +21 44 27.1 19.8 r G45 – Space Surveillance Telescope, Atom Site MPS 587208
2015 02 14.31346 07 43 19.01 +21 44 31.9 20.1 r G45 – Space Surveillance Telescope, Atom Site MPS 587208
2015 02 14.32188 07 43 18.75 +21 44 35.8 20.3 r G45 – Space Surveillance Telescope, Atom Site MPS 587208
2015 02 14.32603 07 43 18.61 +21 44 36.6 20.0 r G45 – Space Surveillance Telescope, Atom Site MPS 587208
2015 02 14.33139 07 43 18.50 +21 44 39.3 20.2 r G45 – Space Surveillance Telescope, Atom Site MPS 587208
2015 02 14.33961 07 43 18.23 +21 44 42.9 19.9 r G45 – Space Surveillance Telescope, Atom Site MPS 587208
2015 02 14.34368 07 43 18.15 +21 44 45.6 20.2 r G45 – Space Surveillance Telescope, Atom Site MPS 587208
2015 02 16.28694 07 42 35.23 +21 59 07.6 20.3 r G45 – Space Surveillance Telescope, Atom Site MPS 587208
